When you browse on this site, cookies collect data to enhance your experience and personalize the content and advertising you see.
Visit our Privacy Policy to learn more. By continuing to use the site, you agree to this use of cookies and data.
  • In Switzerland
  • List of Countries
  • For 7 days
  • Water Temperature
  • Weather Map
  • Weather Widgets
  • user-avatar
    Login

    Hourly Weather Znamenskoe

    Today, 26 August, Monday

    Time Temperature Precipitation Wind Pressure Humidity
    00:00 +12°C° 0 mm 2 mps 751 mmHg 93%
    01:00 +11°C° 0 mm 1 mps 751 mmHg 92%
    02:00 +11°C° 0 mm 1 mps 752 mmHg 92%
    03:00 +9°C° 0 mm 0 mps 752 mmHg 91%
    04:00 +9°C° 0 mm 0 mps 752 mmHg 91%
    05:00 +9°C° 0 mm 0 mps 752 mmHg 91%
    06:00 +9°C° 0 mm 0 mps 752 mmHg 91%
    07:00 +11°C° 0 mm 0 mps 752 mmHg 86%
    08:00 +13°C° 0 mm 0 mps 752 mmHg 80%
    09:00 +14°C° 0 mm 0 mps 752 mmHg 75%
    10:00 +18°C° 0 mm 1 mps 752 mmHg 71%
    11:00 +19°C° 0 mm 1 mps 752 mmHg 67%
    12:00 +19°C° 0 mm 2 mps 751 mmHg 62%
    13:00 +19°C° 0 mm 2 mps 751 mmHg 62%
    14:00 +20°C° 0 mm 2 mps 751 mmHg 62%
    15:00 +20°C° 0 mm 3 mps 751 mmHg 62%
    16:00 +20°C° 0 mm 2 mps 750 mmHg 65%
    17:00 +19°C° 0 mm 2 mps 749 mmHg 69%
    18:00 +19°C° 0 mm 2 mps 749 mmHg 72%
    19:00 +18°C° 0 mm 2 mps 749 mmHg 75%
    20:00 +17°C° 0 mm 3 mps 748 mmHg 79%
    21:00 +14°C° 0 mm 3 mps 748 mmHg 83%
    22:00 +14°C° 0 mm 3 mps 748 mmHg 83%
    23:00 +14°C° 0 mm 3 mps 747 mmHg 84%

    Tomorrow, 27 August, Tuesday

    Time Temperature Precipitation Wind Pressure Humidity
    00:00 +14°C° 0 mm 4 mps 747 mmHg 84%
    01:00 +14°C° 0 mm 4 mps 746 mmHg 84%
    02:00 +14°C° 0 mm 4 mps 746 mmHg 83%
    03:00 +15°C° 0 mm 4 mps 746 mmHg 83%
    04:00 +14°C° 0 mm 4 mps 745 mmHg 85%
    05:00 +14°C° 0 mm 4 mps 745 mmHg 88%
    06:00 +14°C° 0 mm 5 mps 744 mmHg 90%
    07:00 +15°C° 0.2 mm 5 mps 744 mmHg 90%
    08:00 +16°C° 0.2 mm 5 mps 744 mmHg 89%
    09:00 +16°C° 0.2 mm 5 mps 744 mmHg 88%
    10:00 +17°C° 0.5 mm 5 mps 744 mmHg 81%
    11:00 +20°C° 0.5 mm 6 mps 744 mmHg 74%
    12:00 +21°C° 0.5 mm 6 mps 744 mmHg 67%
    13:00 +21°C° 0 mm 6 mps 744 mmHg 63%
    14:00 +21°C° 0 mm 6 mps 744 mmHg 60%
    15:00 +21°C° 0 mm 6 mps 745 mmHg 56%
    16:00 +21°C° 0 mm 5 mps 745 mmHg 61%
    17:00 +20°C° 0 mm 4 mps 745 mmHg 66%
    18:00 +19°C° 0 mm 3 mps 745 mmHg 71%
    19:00 +18°C° 0 mm 4 mps 745 mmHg 74%
    20:00 +15°C° 0 mm 4 mps 745 mmHg 78%
    21:00 +13°C° 0 mm 4 mps 746 mmHg 81%
    22:00 +12°C° 0 mm 4 mps 746 mmHg 83%
    23:00 +11°C° 0 mm 3 mps 746 mmHg 86%

    Day after tomorrow, 28 August, Wednesday

    Time Temperature Precipitation Wind Pressure Humidity
    00:00 +10°C° 0 mm 3 mps 746 mmHg 88%
    01:00 +10°C° 0 mm 3 mps 747 mmHg 89%
    02:00 +9°C° 0 mm 3 mps 747 mmHg 89%
    03:00 +8°C° 0 mm 4 mps 747 mmHg 90%
    04:00 +8°C° 0 mm 4 mps 747 mmHg 90%
    05:00 +8°C° 0 mm 3 mps 748 mmHg 90%
    06:00 +7°C° 0 mm 3 mps 748 mmHg 90%
    07:00 +8°C° 0 mm 4 mps 748 mmHg 84%
    08:00 +9°C° 0 mm 5 mps 748 mmHg 77%
    09:00 +11°C° 0 mm 6 mps 749 mmHg 71%
    10:00 +11°C° 0 mm 6 mps 749 mmHg 66%
    11:00 +13°C° 0 mm 6 mps 749 mmHg 60%
    12:00 +14°C° 0 mm 6 mps 749 mmHg 55%
    13:00 +14°C° 0 mm 6 mps 749 mmHg 53%
    14:00 +14°C° 0 mm 6 mps 749 mmHg 51%
    15:00 +15°C° 0 mm 5 mps 749 mmHg 49%
    16:00 +14°C° 0 mm 5 mps 749 mmHg 54%
    17:00 +14°C° 0 mm 4 mps 749 mmHg 59%
    18:00 +13°C° 0 mm 3 mps 749 mmHg 65%
    19:00 +12°C° 0 mm 3 mps 749 mmHg 68%
    20:00 +10°C° 0 mm 3 mps 750 mmHg 72%
    21:00 +8°C° 0 mm 2 mps 750 mmHg 76%
    22:00 +8°C° 0 mm 2 mps 750 mmHg 78%
    23:00 +7°C° 0 mm 2 mps 750 mmHg 80%

    29 August, Thursday

    Time Temperature Precipitation Wind Pressure Humidity
    00:00 +7°C° 0 mm 2 mps 750 mmHg 83%
    01:00 +7°C° 0 mm 2 mps 751 mmHg 84%
    02:00 +6°C° 0 mm 2 mps 751 mmHg 85%
    03:00 +6°C° 0 mm 2 mps 751 mmHg 86%
    04:00 +6°C° 0 mm 2 mps 751 mmHg 87%
    05:00 +7°C° 0 mm 1 mps 751 mmHg 87%
    06:00 +7°C° 0 mm 1 mps 751 mmHg 88%
    07:00 +8°C° 0 mm 2 mps 751 mmHg 81%
    08:00 +10°C° 0 mm 2 mps 751 mmHg 74%
    09:00 +12°C° 0 mm 2 mps 751 mmHg 67%
    10:00 +14°C° 0 mm 2 mps 751 mmHg 63%
    11:00 +15°C° 0 mm 2 mps 751 mmHg 60%
    12:00 +16°C° 0 mm 2 mps 751 mmHg 56%
    13:00 +17°C° 0 mm 2 mps 750 mmHg 57%
    14:00 +18°C° 0 mm 2 mps 750 mmHg 59%
    15:00 +18°C° 0 mm 2 mps 750 mmHg 60%
    16:00 +18°C° 0 mm 2 mps 749 mmHg 63%
    17:00 +18°C° 0 mm 2 mps 749 mmHg 67%
    18:00 +18°C° 0 mm 2 mps 749 mmHg 70%
    19:00 +17°C° 0 mm 2 mps 749 mmHg 74%
    20:00 +15°C° 0 mm 2 mps 748 mmHg 77%
    21:00 +13°C° 0 mm 3 mps 748 mmHg 80%
    22:00 +12°C° 0 mm 3 mps 748 mmHg 83%
    23:00 +12°C° 0 mm 3 mps 748 mmHg 85%

    30 August, Friday

    Time Temperature Precipitation Wind Pressure Humidity
    00:00 +11°C° 0 mm 3 mps 748 mmHg 87%
    01:00 +11°C° 0 mm 3 mps 747 mmHg 88%
    02:00 +11°C° 0 mm 3 mps 747 mmHg 90%
    03:00 +11°C° 0 mm 3 mps 747 mmHg 91%
    04:00 +11°C° 0 mm 4 mps 747 mmHg 90%
    05:00 +11°C° 0 mm 4 mps 746 mmHg 88%
    06:00 +11°C° 0 mm 4 mps 746 mmHg 87%
    07:00 +12°C° 0 mm 4 mps 746 mmHg 83%
    08:00 +14°C° 0 mm 5 mps 746 mmHg 78%
    09:00 +15°C° 0 mm 5 mps 747 mmHg 74%
    10:00 +17°C° 0 mm 5 mps 747 mmHg 71%
    11:00 +19°C° 0 mm 5 mps 747 mmHg 68%
    12:00 +20°C° 0 mm 4 mps 747 mmHg 64%
    13:00 +20°C° 0.2 mm 4 mps 747 mmHg 67%
    14:00 +20°C° 0.2 mm 4 mps 747 mmHg 70%
    15:00 +19°C° 0.2 mm 4 mps 747 mmHg 73%
    16:00 +19°C° 0.1 mm 3 mps 747 mmHg 76%
    17:00 +18°C° 0.1 mm 3 mps 747 mmHg 78%
    18:00 +17°C° 0.1 mm 2 mps 747 mmHg 81%
    19:00 +16°C° 0 mm 2 mps 747 mmHg 84%
    20:00 +15°C° 0 mm 2 mps 747 mmHg 87%
    21:00 +13°C° 0 mm 1 mps 747 mmHg 90%
    22:00 +13°C° 0 mm 2 mps 747 mmHg 90%
    23:00 +12°C° 0 mm 2 mps 747 mmHg 90%

    31 August, Saturday

    Time Temperature Precipitation Wind Pressure Humidity
    00:00 +12°C° 0 mm 2 mps 747 mmHg 90%
    01:00 +12°C° 0 mm 2 mps 747 mmHg 91%
    02:00 +10°C° 0 mm 2 mps 747 mmHg 92%
    03:00 +10°C° 0 mm 2 mps 747 mmHg 93%
    04:00 +10°C° 0 mm 2 mps 747 mmHg 94%
    05:00 +10°C° 0 mm 2 mps 747 mmHg 94%
    06:00 +10°C° 0 mm 2 mps 747 mmHg 95%
    07:00 +13°C° 0 mm 2 mps 747 mmHg 91%
    08:00 +15°C° 0 mm 2 mps 746 mmHg 86%
    09:00 +17°C° 0 mm 2 mps 746 mmHg 81%
    10:00 +18°C° 0 mm 2 mps 746 mmHg 74%
    11:00 +19°C° 0 mm 2 mps 746 mmHg 67%
    12:00 +21°C° 0 mm 2 mps 746 mmHg 60%
    13:00 +21°C° 0 mm 2 mps 746 mmHg 59%
    14:00 +22°C° 0 mm 3 mps 745 mmHg 58%
    15:00 +22°C° 0 mm 3 mps 745 mmHg 57%
    16:00 +21°C° 0 mm 3 mps 745 mmHg 62%
    17:00 +21°C° 0 mm 3 mps 745 mmHg 66%
    18:00 +20°C° 0 mm 3 mps 745 mmHg 71%
    19:00 +18°C° 0 mm 3 mps 744 mmHg 74%
    20:00 +17°C° 0 mm 2 mps 744 mmHg 76%
    21:00 +15°C° 0 mm 2 mps 744 mmHg 79%
    22:00 +14°C° 0 mm 2 mps 744 mmHg 81%
    23:00 +14°C° 0 mm 2 mps 744 mmHg 82%
    Show more